• în Republica Moldova
  • Lista ţărilor
  • Pe 7 zile
  • Temperatura apei
  • Hartă satelitară
  • Meteo pe hartă
  • Widget-uri
  • user-avatar
    Intrare

    Meteo pe oră la Lezhe

    Astăzi, 22 Septembrie, Vineri

    Timp Temperatura Precipitaţii Vânt Presiune Umiditate
    00:00 +12°C° 0 mm 2 m/s 739 mmHg 81%
    01:00 +12°C° 0 mm 2 m/s 739 mmHg 81%
    02:00 +10°C° 0 mm 2 m/s 739 mmHg 81%
    03:00 +10°C° 0 mm 2 m/s 739 mmHg 81%
    04:00 +10°C° 0 mm 2 m/s 739 mmHg 82%
    05:00 +12°C° 0 mm 2 m/s 739 mmHg 78%
    06:00 +13°C° 0 mm 1 m/s 740 mmHg 75%
    07:00 +14°C° 0 mm 1 m/s 740 mmHg 71%
    08:00 +15°C° 0 mm 2 m/s 740 mmHg 63%
    09:00 +17°C° 0 mm 2 m/s 740 mmHg 54%
    10:00 +18°C° 0 mm 2 m/s 740 mmHg 45%
    11:00 +19°C° 0 mm 2 m/s 740 mmHg 44%
    12:00 +20°C° 0 mm 3 m/s 740 mmHg 43%
    13:00 +20°C° 0 mm 4 m/s 740 mmHg 42%
    14:00 +20°C° 0 mm 3 m/s 740 mmHg 44%
    15:00 +20°C° 0 mm 3 m/s 740 mmHg 46%
    16:00 +19°C° 0 mm 3 m/s 740 mmHg 49%
    17:00 +17°C° 0 mm 3 m/s 740 mmHg 56%
    18:00 +16°C° 0 mm 2 m/s 740 mmHg 63%
    19:00 +14°C° 0 mm 2 m/s 741 mmHg 70%
    20:00 +13°C° 0 mm 2 m/s 741 mmHg 71%
    21:00 +13°C° 0 mm 2 m/s 741 mmHg 72%
    22:00 +13°C° 0 mm 2 m/s 741 mmHg 73%
    23:00 +13°C° 0 mm 2 m/s 742 mmHg 72%

    Mâine, 23 Septembrie, Sâmbătă

    Timp Temperatura Precipitaţii Vânt Presiune Umiditate
    00:00 +12°C° 0 mm 2 m/s 742 mmHg 71%
    01:00 +12°C° 0 mm 2 m/s 742 mmHg 70%
    02:00 +12°C° 0 mm 2 m/s 742 mmHg 69%
    03:00 +12°C° 0 mm 2 m/s 742 mmHg 68%
    04:00 +12°C° 0 mm 2 m/s 741 mmHg 67%
    05:00 +13°C° 0 mm 2 m/s 742 mmHg 64%
    06:00 +14°C° 0 mm 2 m/s 742 mmHg 60%
    07:00 +15°C° 0 mm 2 m/s 742 mmHg 57%
    08:00 +18°C° 0 mm 1 m/s 742 mmHg 50%
    09:00 +20°C° 0 mm 1 m/s 741 mmHg 44%
    10:00 +23°C° 0 mm 1 m/s 741 mmHg 38%
    11:00 +23°C° 0 mm 1 m/s 741 mmHg 38%
    12:00 +24°C° 0 mm 2 m/s 741 mmHg 38%
    13:00 +24°C° 0 mm 2 m/s 740 mmHg 38%
    14:00 +24°C° 0 mm 2 m/s 740 mmHg 41%
    15:00 +23°C° 0 mm 2 m/s 740 mmHg 45%
    16:00 +23°C° 0 mm 2 m/s 740 mmHg 49%
    17:00 +20°C° 0 mm 2 m/s 740 mmHg 58%
    18:00 +18°C° 0 mm 1 m/s 740 mmHg 67%
    19:00 +15°C° 0 mm 1 m/s 740 mmHg 76%
    20:00 +15°C° 0 mm 1 m/s 740 mmHg 76%
    21:00 +15°C° 0 mm 1 m/s 740 mmHg 76%
    22:00 +15°C° 0 mm 1 m/s 741 mmHg 76%
    23:00 +14°C° 0 mm 1 m/s 740 mmHg 74%

    Poimâine, 24 Septembrie, Duminică

    Timp Temperatura Precipitaţii Vânt Presiune Umiditate
    00:00 +14°C° 0 mm 1 m/s 740 mmHg 72%
    01:00 +14°C° 0 mm 1 m/s 740 mmHg 70%
    02:00 +14°C° 0 mm 1 m/s 740 mmHg 68%
    03:00 +14°C° 0 mm 1 m/s 740 mmHg 65%
    04:00 +14°C° 0 mm 1 m/s 740 mmHg 63%
    05:00 +15°C° 0 mm 1 m/s 740 mmHg 60%
    06:00 +16°C° 0 mm 1 m/s 740 mmHg 57%
    07:00 +18°C° 0 mm 1 m/s 740 mmHg 54%
    08:00 +20°C° 0 mm 1 m/s 740 mmHg 49%
    09:00 +22°C° 0 mm 1 m/s 740 mmHg 43%
    10:00 +24°C° 0 mm 1 m/s 740 mmHg 38%
    11:00 +24°C° 0 mm 1 m/s 740 mmHg 37%
    12:00 +25°C° 0 mm 2 m/s 739 mmHg 36%
    13:00 +25°C° 0 mm 2 m/s 739 mmHg 35%
    14:00 +25°C° 0 mm 2 m/s 739 mmHg 38%
    15:00 +24°C° 0 mm 2 m/s 739 mmHg 41%
    16:00 +24°C° 0 mm 2 m/s 738 mmHg 43%
    17:00 +22°C° 0 mm 1 m/s 739 mmHg 50%
    18:00 +20°C° 0 mm 1 m/s 739 mmHg 57%
    19:00 +18°C° 0 mm 1 m/s 739 mmHg 64%
    20:00 +16°C° 0 mm 1 m/s 739 mmHg 64%
    21:00 +16°C° 0 mm 1 m/s 739 mmHg 64%
    22:00 +16°C° 0 mm 1 m/s 739 mmHg 64%
    23:00 +16°C° 0 mm 1 m/s 739 mmHg 63%

    25 Septembrie, Luni

    Timp Temperatura Precipitaţii Vânt Presiune Umiditate
    00:00 +15°C° 0 mm 2 m/s 739 mmHg 63%
    01:00 +15°C° 0 mm 2 m/s 739 mmHg 62%
    02:00 +15°C° 0 mm 2 m/s 739 mmHg 60%
    03:00 +15°C° 0 mm 2 m/s 739 mmHg 59%
    04:00 +15°C° 0 mm 2 m/s 739 mmHg 58%
    05:00 +16°C° 0 mm 2 m/s 739 mmHg 57%
    06:00 +17°C° 0 mm 2 m/s 739 mmHg 55%
    07:00 +18°C° 0 mm 2 m/s 739 mmHg 54%
    08:00 +21°C° 0 mm 1 m/s 739 mmHg 48%
    09:00 +23°C° 0 mm 1 m/s 739 mmHg 42%
    10:00 +25°C° 0 mm 1 m/s 739 mmHg 36%
    11:00 +25°C° 0 mm 1 m/s 739 mmHg 35%
    12:00 +26°C° 0 mm 2 m/s 739 mmHg 34%
    13:00 +26°C° 0 mm 2 m/s 738 mmHg 33%
    14:00 +26°C° 0 mm 2 m/s 738 mmHg 35%
    15:00 +25°C° 0 mm 2 m/s 738 mmHg 38%
    16:00 +25°C° 0 mm 1 m/s 738 mmHg 40%
    17:00 +22°C° 0 mm 1 m/s 738 mmHg 45%
    18:00 +20°C° 0 mm 1 m/s 739 mmHg 51%
    19:00 +16°C° 0 mm 0 m/s 739 mmHg 56%
    20:00 +18°C° 0 mm 1 m/s 739 mmHg 57%
    21:00 +18°C° 0 mm 1 m/s 739 mmHg 57%
    22:00 +18°C° 0 mm 1 m/s 739 mmHg 57%
    23:00 +16°C° 0 mm 2 m/s 739 mmHg 58%

    26 Septembrie, Marţi

    Timp Temperatura Precipitaţii Vânt Presiune Umiditate
    00:00 +16°C° 0 mm 2 m/s 739 mmHg 58%
    01:00 +16°C° 0 mm 2 m/s 739 mmHg 58%
    02:00 +16°C° 0 mm 2 m/s 739 mmHg 58%
    03:00 +16°C° 0 mm 2 m/s 739 mmHg 58%
    04:00 +15°C° 0 mm 2 m/s 739 mmHg 58%
    05:00 +16°C° 0 mm 2 m/s 739 mmHg 57%
    06:00 +17°C° 0 mm 2 m/s 739 mmHg 56%
    07:00 +18°C° 0 mm 2 m/s 739 mmHg 55%
    08:00 +21°C° 0 mm 1 m/s 739 mmHg 49%
    09:00 +23°C° 0 mm 1 m/s 739 mmHg 43%
    10:00 +25°C° 0 mm 1 m/s 739 mmHg 36%
    11:00 +26°C° 0 mm 1 m/s 739 mmHg 35%
    12:00 +26°C° 0 mm 2 m/s 738 mmHg 35%
    13:00 +27°C° 0 mm 2 m/s 738 mmHg 34%
    14:00 +26°C° 0 mm 2 m/s 738 mmHg 37%
    15:00 +25°C° 0 mm 2 m/s 738 mmHg 40%
    16:00 +25°C° 0 mm 2 m/s 738 mmHg 43%
    17:00 +23°C° 0 mm 1 m/s 738 mmHg 48%
    18:00 +21°C° 0 mm 1 m/s 738 mmHg 54%
    19:00 +19°C° 0 mm 1 m/s 738 mmHg 59%
    20:00 +19°C° 0 mm 1 m/s 739 mmHg 60%
    21:00 +19°C° 0 mm 1 m/s 739 mmHg 60%
    22:00 +18°C° 0 mm 2 m/s 739 mmHg 61%
    23:00 +17°C° 0 mm 2 m/s 739 mmHg 61%

    27 Septembrie, Miercuri

    Timp Temperatura Precipitaţii Vânt Presiune Umiditate
    00:00 +17°C° 0 mm 2 m/s 739 mmHg 62%
    01:00 +17°C° 0 mm 2 m/s 739 mmHg 63%
    02:00 +17°C° 0 mm 2 m/s 739 mmHg 63%
    03:00 +17°C° 0 mm 2 m/s 739 mmHg 64%
    04:00 +16°C° 0 mm 2 m/s 739 mmHg 65%
    05:00 +17°C° 0 mm 2 m/s 739 mmHg 64%
    06:00 +18°C° 0 mm 2 m/s 739 mmHg 63%
    07:00 +18°C° 0 mm 2 m/s 739 mmHg 62%
    08:00 +20°C° 0 mm 2 m/s 739 mmHg 55%
    09:00 +24°C° 0 mm 1 m/s 739 mmHg 48%
    10:00 +26°C° 0 mm 1 m/s 740 mmHg 41%
    11:00 +26°C° 0,1 mm 2 m/s 739 mmHg 41%
    12:00 +26°C° 0,1 mm 2 m/s 739 mmHg 42%
    13:00 +27°C° 0,1 mm 3 m/s 739 mmHg 42%
    14:00 +26°C° 0,2 mm 2 m/s 739 mmHg 46%
    15:00 +25°C° 0,2 mm 2 m/s 739 mmHg 50%
    16:00 +24°C° 0,2 mm 2 m/s 739 mmHg 55%
    17:00 +23°C° 0,2 mm 2 m/s 739 mmHg 60%
    18:00 +20°C° 0,2 mm 2 m/s 739 mmHg 66%
    19:00 +20°C° 0,2 mm 1 m/s 739 mmHg 71%
    20:00 +18°C° 0,1 mm 2 m/s 739 mmHg 71%
    21:00 +18°C° 0,1 mm 2 m/s 739 mmHg 71%
    22:00 +18°C° 0,1 mm 2 m/s 740 mmHg 71%
    23:00 +18°C° 0,1 mm 2 m/s 740 mmHg 72%
    Arată mai mult